Location: *
(90.0000°N, 180.0000°W)
Time: 14:06:36
(UTC+01:00)

Okean O Rocket - Visible Passes

Search period start: 31 January 2015 00:00
Search period end: 10 February 2015 00:00
Orbit: 625 x 646 km, 98.0° (Epoch: 30 January)

Date Brightness Start Highest point End Pass type
(mag) Time Alt. Az. Time Alt. Az. Time Alt. Az.
31 Jan 3.3 01:16:45 10° S 01:20:42 31° SW 01:24:41 10° WNW visible
31 Jan 3.3 02:54:15 10° SSW 02:58:11 31° WSW 03:02:10 10° NW visible
31 Jan 3.3 04:31:44 10° SW 04:35:41 31° WNW 04:39:40 10° NNW visible
31 Jan 3.3 06:09:13 10° WSW 06:13:10 31° NW 06:17:09 10° N visible
31 Jan 3.3 07:46:43 10° W 07:50:40 31° NNW 07:54:39 10° NNE visible
31 Jan 3.3 09:24:12 10° WNW 09:28:09 31° N 09:32:08 10° ENE visible
31 Jan 3.3 11:01:41 10° NW 11:05:38 31° NNE 11:09:37 10° E visible
31 Jan 3.3 12:39:11 10° NNW 12:43:07 31° NE 12:47:07 10° ESE visible
31 Jan 3.3 14:16:40 10° N 14:20:37 31° ENE 14:24:36 10° SE visible
31 Jan 3.3 15:54:09 10° NNE 15:58:06 31° E 16:02:05 10° SSE visible
31 Jan 3.3 17:31:39 10° NE 17:35:36 31° ESE 17:39:35 10° S visible
31 Jan 3.3 19:09:08 10° ENE 19:13:05 31° SE 19:17:04 10° SSW visible
31 Jan 3.3 20:46:37 10° ESE 20:50:35 31° SSE 20:54:33 10° SW visible
31 Jan 3.3 22:24:06 10° SE 22:28:03 31° S 22:32:03 10° WSW visible
01 Feb 3.3 00:01:36 10° SSE 00:05:33 31° SW 00:09:32 10° W visible
01 Feb 3.3 01:39:05 10° S 01:43:02 31° WSW 01:47:01 10° WNW visible
01 Feb 3.3 03:16:35 10° SSW 03:20:32 31° W 03:24:31 10° NW visible
01 Feb 3.3 04:54:04 10° SW 04:58:01 31° WNW 05:02:00 10° N visible
01 Feb 3.3 06:31:33 10° WSW 06:35:31 31° NW 06:39:29 10° NNE visible
01 Feb 3.3 08:09:02 10° W 08:13:00 31° NNW 08:16:59 10° NE visible
01 Feb 3.3 09:46:32 10° WNW 09:50:29 31° N 09:54:28 10° ENE visible
01 Feb 3.3 11:24:01 10° NW 11:27:58 31° NNE 11:31:58 10° E visible
01 Feb 3.3 13:01:31 10° NNW 13:05:28 31° NE 13:09:27 10° ESE visible
01 Feb 3.3 14:39:00 10° N 14:42:57 31° ENE 14:46:56 10° SE visible
01 Feb 3.3 16:16:29 10° NE 16:20:27 31° E 16:24:26 10° SSE visible
01 Feb 3.3 17:53:58 10° ENE 17:57:56 31° ESE 18:01:55 10° S visible
01 Feb 3.3 19:31:28 10° E 19:35:25 31° SSE 19:39:24 10° SSW visible
01 Feb 3.3 21:08:57 10° ESE 21:12:54 31° S 21:16:54 10° SW visible
01 Feb 3.3 22:46:27 10° SE 22:50:24 31° SSW 22:54:23 10° WSW visible
02 Feb 3.3 00:23:55 10° SSE 00:27:53 31° SW 00:31:52 10° WNW visible
02 Feb 3.3 02:01:25 10° S 02:05:23 31° WSW 02:09:22 10° NW visible
02 Feb 3.3 03:38:54 10° SSW 03:42:52 31° W 03:46:51 10° NNW visible
02 Feb 3.3 05:16:24 10° SW 05:20:21 31° WNW 05:24:20 10° N visible
02 Feb 3.3 06:53:53 10° WSW 06:57:50 31° NW 07:01:50 10° NNE visible
02 Feb 3.3 08:31:22 10° W 08:35:20 31° NNW 08:39:19 10° NE visible
02 Feb 3.3 10:08:51 10° WNW 10:12:49 31° N 10:16:48 10° ENE visible
02 Feb 3.3 11:46:21 10° NNW 11:50:19 31° NNE 11:54:18 10° E visible
02 Feb 3.3 13:23:50 10° N 13:27:48 31° NE 13:31:47 10° ESE visible
02 Feb 3.3 15:01:20 10° NNE 15:05:17 31° E 15:09:17 10° SE visible
02 Feb 3.3 16:38:49 10° NE 16:42:47 31° ESE 16:46:46 10° SSE visible
02 Feb 3.3 18:16:17 10° ENE 18:20:16 31° SE 18:24:15 10° S visible
02 Feb 3.3 19:53:47 10° E 19:57:45 31° SSE 20:01:45 10° SW visible
02 Feb 3.3 21:31:16 10° ESE 21:35:15 31° S 21:39:14 10° WSW visible
02 Feb 3.3 23:08:46 10° SE 23:12:44 31° SSW 23:16:43 10° W visible
03 Feb 3.3 00:46:15 10° SSE 00:50:13 31° SW 00:54:13 10° WNW visible
03 Feb 3.3 02:23:44 10° S 02:27:43 31° WSW 02:31:42 10° NW visible
03 Feb 3.3 04:01:13 10° SSW 04:05:12 31° W 04:09:11 10° NNW visible
03 Feb 3.3 05:38:43 10° SW 05:42:41 31° WNW 05:46:41 10° N visible
03 Feb 3.3 07:16:12 10° W 07:20:11 31° NW 07:24:10 10° NNE visible
03 Feb 3.3 08:53:42 10° WNW 08:57:40 31° NNW 09:01:39 10° NE visible
03 Feb 3.3 10:31:11 10° NW 10:35:10 31° NNE 10:39:09 10° ENE visible
03 Feb 3.3 12:08:40 10° NNW 12:12:38 31° NE 12:16:38 10° E visible
03 Feb 3.3 13:46:10 10° N 13:50:08 31° ENE 13:54:07 10° ESE visible
03 Feb 3.3 15:23:39 10° NNE 15:27:37 31° E 15:31:37 10° SSE visible
03 Feb 3.3 17:01:08 10° NE 17:05:07 31° ESE 17:09:06 10° S visible
03 Feb 3.3 18:38:38 10° ENE 18:42:36 31° SE 18:46:35 10° SSW visible
03 Feb 3.3 20:16:07 10° E 20:20:06 31° SSE 20:24:05 10° SW visible
03 Feb 3.3 21:53:36 10° ESE 21:57:34 31° S 22:01:34 10° WSW visible
03 Feb 3.3 23:31:06 10° SE 23:35:04 31° SSW 23:39:03 10° W visible
04 Feb 3.3 01:08:35 10° SSE 01:12:33 31° SW 01:16:33 10° WNW visible
04 Feb 3.3 02:46:04 10° SSW 02:50:03 31° WSW 02:54:02 10° NW visible
04 Feb 3.3 04:23:34 10° SW 04:27:32 31° W 04:31:31 10° NNW visible
04 Feb 3.3 06:01:03 10° WSW 06:05:02 31° NW 06:09:01 10° N visible
04 Feb 3.3 07:38:32 10° W 07:42:30 31° NNW 07:46:30 10° NNE visible
04 Feb 3.3 09:16:01 10° WNW 09:20:00 31° N 09:23:59 10° NE visible
04 Feb 3.3 10:53:31 10° NW 10:57:29 31° NNE 11:01:29 10° E visible
04 Feb 3.3 12:31:00 10° NNW 12:34:59 31° NE 12:38:58 10° ESE visible
04 Feb 3.3 14:08:29 10° N 14:12:28 31° ENE 14:16:27 10° SE visible
04 Feb 3.3 15:45:59 10° NNE 15:49:58 31° E 15:53:57 10° SSE visible
04 Feb 3.3 17:23:28 10° NE 17:27:26 31° ESE 17:31:26 10° S visible
04 Feb 3.3 19:00:57 10° ENE 19:04:56 31° SE 19:08:56 10° SSW visible
04 Feb 3.3 20:38:27 10° E 20:42:25 31° SSE 20:46:25 10° SW visible
04 Feb 3.3 22:15:56 10° SE 22:19:55 31° S 22:23:54 10° WSW visible
04 Feb 3.3 23:53:25 10° SSE 23:57:24 31° SSW 00:01:24 10° W visible
05 Feb 3.3 01:30:55 10° S 01:34:53 31° WSW 01:38:53 10° WNW visible
05 Feb 3.3 03:08:24 10° SSW 03:12:22 31° W 03:16:22 10° NW visible
05 Feb 3.3 04:45:53 10° SW 04:49:52 31° WNW 04:53:52 10° NNW visible
05 Feb 3.3 06:23:22 10° WSW 06:27:21 31° NW 06:31:21 10° NNE visible
05 Feb 3.3 08:00:52 10° W 08:04:51 31° NNW 08:08:50 10° NE visible
05 Feb 3.3 09:38:21 10° WNW 09:42:20 31° N 09:46:20 10° ENE visible
05 Feb 3.3 11:15:50 10° NW 11:19:49 31° NNE 11:23:49 10° E visible
05 Feb 3.3 12:53:20 10° NNW 12:57:18 31° NE 13:01:18 10° ESE visible
05 Feb 3.3 14:30:49 10° N 14:34:47 31° ENE 14:38:48 10° SE visible
05 Feb 3.3 16:08:18 10° NNE 16:12:17 31° E 16:16:17 10° SSE visible
05 Feb 3.3 17:45:48 10° ENE 17:49:46 31° ESE 17:53:46 10° S visible
05 Feb 3.3 19:23:17 10° E 19:27:16 31° SE 19:31:16 10° SSW visible
05 Feb 3.3 21:00:46 10° ESE 21:04:44 31° SSE 21:08:45 10° SW visible
05 Feb 3.3 22:38:16 10° SE 22:42:14 31° SSW 22:46:14 10° WSW visible
06 Feb 3.3 00:15:45 10° SSE 00:19:43 31° SW 00:23:44 10° W visible
06 Feb 3.3 01:53:14 10° S 01:57:13 31° WSW 02:01:13 10° NW visible
06 Feb 3.3 03:30:43 10° SSW 03:34:42 31° W 03:38:42 10° NNW visible
06 Feb 3.3 05:08:12 10° SW 05:12:12 31° WNW 05:16:12 10° N visible
06 Feb 3.3 06:45:42 10° WSW 06:49:40 31° NW 06:53:41 10° NNE visible
06 Feb 3.3 08:23:11 10° W 08:27:10 31° NNW 08:31:10 10° NE visible
06 Feb 3.3 10:00:41 10° WNW 10:04:39 31° N 10:08:40 10° ENE visible
06 Feb 3.3 11:38:10 10° NW 11:42:09 31° NNE 11:46:09 10° E visible
06 Feb 3.3 13:15:39 10° N 13:19:38 31° NE 13:23:38 10° ESE visible
06 Feb 3.3 14:53:08 10° NNE 14:57:08 31° ENE 15:01:08 10° SE visible
06 Feb 3.3 16:30:38 10° NE 16:34:36 31° E 16:38:37 10° SSE visible
06 Feb 3.3 18:08:07 10° ENE 18:12:06 31° SE 18:16:06 10° S visible
06 Feb 3.3 19:45:37 10° E 19:49:35 31° SSE 19:53:36 10° SSW visible
06 Feb 3.3 21:23:05 10° ESE 21:27:05 31° S 21:31:05 10° WSW visible
06 Feb 3.3 23:00:35 10° SE 23:04:34 31° SSW 23:08:34 10° W visible
07 Feb 3.3 00:38:04 10° SSE 00:42:04 31° SW 00:46:04 10° WNW visible
07 Feb 3.3 02:15:34 10° S 02:19:32 31° WSW 02:23:33 10° NW visible
07 Feb 3.3 03:53:03 10° SSW 03:57:02 31° W 04:01:02 10° NNW visible
07 Feb 3.3 05:30:32 10° SW 05:34:31 31° WNW 05:38:32 10° N visible
07 Feb 3.3 07:08:01 10° WSW 07:12:01 31° NW 07:16:01 10° NNE visible
07 Feb 3.3 08:45:31 10° WNW 08:49:30 31° NNW 08:53:30 10° NE visible
07 Feb 3.3 10:23:00 10° NW 10:27:00 31° N 10:31:00 10° ENE visible
07 Feb 3.3 12:00:30 10° NNW 12:04:28 31° NNE 12:08:29 10° E visible
07 Feb 3.3 13:37:59 10° N 13:41:58 31° ENE 13:45:58 10° ESE visible
07 Feb 3.3 15:15:28 10° NNE 15:19:27 31° E 15:23:27 10° SE visible
07 Feb 3.3 16:52:57 10° NE 16:56:57 31° ESE 17:00:57 10° S visible
07 Feb 3.3 18:30:27 10° ENE 18:34:25 31° SE 18:38:26 10° SSW visible
07 Feb 3.3 20:07:56 10° E 20:11:56 31° SSE 20:15:55 10° SW visible
07 Feb 3.3 21:45:25 10° ESE 21:49:24 31° S 21:53:25 10° WSW visible
07 Feb 3.3 23:22:54 10° SE 23:26:54 31° SSW 23:30:54 10° W visible
08 Feb 3.3 01:00:24 10° SSE 01:04:23 31° SW 01:08:23 10° WNW visible
08 Feb 3.3 02:37:53 10° S 02:41:52 31° WSW 02:45:53 10° NW visible
08 Feb 3.3 04:15:22 10° SW 04:19:22 31° W 04:23:22 10° NNW visible
08 Feb 3.3 05:52:52 10° WSW 05:56:50 31° WNW 06:00:51 10° N visible
08 Feb 3.3 07:30:21 10° W 07:34:20 31° NW 07:38:21 10° NNE visible
08 Feb 3.3 09:07:50 10° WNW 09:11:49 31° N 09:15:50 10° NE visible
08 Feb 3.3 10:45:20 10° NW 10:49:19 31° NNE 10:53:19 10° ENE visible
08 Feb 3.3 12:22:49 10° NNW 12:26:48 31° NE 12:30:49 10° ESE visible
08 Feb 3.3 14:00:18 10° N 14:04:17 31° ENE 14:08:18 10° SE visible
08 Feb 3.3 15:37:47 10° NNE 15:41:46 31° E 15:45:47 10° SSE visible
08 Feb 3.3 17:15:17 10° NE 17:19:16 31° ESE 17:23:17 10° S visible
08 Feb 3.3 18:52:46 10° ENE 18:56:45 31° SE 19:00:46 10° SSW visible
08 Feb 3.3 20:30:15 10° E 20:34:15 31° SSE 20:38:15 10° SW visible
08 Feb 3.3 22:07:45 10° ESE 22:11:44 31° S 22:15:45 10° WSW visible
08 Feb 3.3 23:45:14 10° SSE 23:49:13 31° SSW 23:53:14 10° W visible
09 Feb 3.3 01:22:43 10° S 01:26:42 31° SW 01:30:43 10° WNW visible
09 Feb 3.3 03:00:13 10° SSW 03:04:12 31° WSW 03:08:13 10° NW visible
09 Feb 3.3 04:37:42 10° SW 04:41:41 31° WNW 04:45:42 10° NNW visible
09 Feb 3.3 06:15:11 10° WSW 06:19:11 31° NW 06:23:11 10° N visible
09 Feb 3.3 07:52:40 10° W 07:56:40 31° NNW 08:00:41 10° NE visible
09 Feb 3.3 09:30:10 10° WNW 09:34:09 31° N 09:38:10 10° ENE visible
09 Feb 3.3 11:07:39 10° NW 11:11:38 31° NNE 11:15:39 10° E visible
09 Feb 3.3 12:45:08 10° NNW 12:49:08 31° NE 12:53:09 10° ESE visible
09 Feb 3.3 14:22:38 10° N 14:26:37 31° ENE 14:30:38 10° SE visible
09 Feb 3.3 16:00:07 10° NNE 16:04:06 31° E 16:08:07 10° SSE visible
09 Feb 3.3 17:37:36 10° NE 17:41:35 31° ESE 17:45:36 10° S visible
09 Feb 3.3 19:15:06 10° E 19:19:05 31° SE 19:23:06 10° SSW visible
09 Feb 3.3 20:52:35 10° ESE 20:56:34 31° SSE 21:00:35 10° SW visible
09 Feb 3.3 22:30:04 10° SE 22:34:04 31° S 22:38:04 10° WSW visible
